KB6LA Weather Reports


time (UTC)temp
C
wind
direction
speed
KPH
gust
KPH
rain 1hr
cm
rain 24hr
cm
rain mn
cm
humidity
%
barometer
mb
20260906231317 22 338 11.3 12.9 0.61 2.64 2.64 92 1011.8
20260906230716 22 338 3.2 6.4 0.66 2.64 2.64 92 1012.1
20260906225516 22 341 1.6 1.6 0.51 2.49 2.49 92 1012.1
20260906224917 22 313 1.6 6.4 0.48 2.46 2.46 92 1012.4
20260906224319 22 358 3.2 6.4 0.43 2.41 2.41 91 1012.8
20260906223716 22 359 6.4 6.4 0.48 2.36 2.36 91 1012.4
20260906223116 22 2 3.2 3.2 0.43 2.26 2.26 91 1012.4
20260906222520 22 336 1.6 1.6 0.20 2.03 2.03 91 1012.8
20260906221917 22 328 6.4 6.4 0.20 2.03 2.03 91 1012.8
20260906221317 22 350 4.8 4.8 0.20 2.03 2.03 90 1012.8
20260906220718 22 346 6.4 6.4 0.15 1.98 1.98 90 1012.4
20260906215517 22 10 3.2 4.8 0.15 1.98 1.98 90 1012.8
20260906214920 22 17 3.2 4.8 0.15 1.98 1.98 89 1012.4
20260906214316 22 25 9.7 12.9 0.15 1.98 1.98 89 1013.1
20260906213718 22 334 6.4 9.7 0.05 1.88 1.88 88 1012.8
20260906213120 22 358 6.4 6.4 0.03 1.83 1.83 88 1013.1
20260906211915 22 326 9.7 9.7 0.03 1.83 1.83 89 1013.1
20260906211320 22 2 6.4 9.7 0.03 1.83 1.83 90 1012.4
20260906210715 22 355 1.6 1.6 0.03 1.83 1.83 91 1012.4
20260906210118 22 337 3.2 3.2 0.03 1.83 1.83 91 1012.8
20260906205519 22 355 8.0 9.7 0.03 1.83 1.83 91 1012.8
20260906204916 22 5 3.2 4.8 0.03 1.83 1.83 91 1012.1
20260906204314 22 18 6.4 6.4 0.03 1.83 1.83 91 1012.4
20260906203721 22 11 3.2 6.4 0.03 1.83 1.83 91 1012.4
20260906203116 22 37 3.2 4.8 0.00 1.80 1.80 91 1012.4
20260906202517 22 33 8.0 9.7 0.00 1.80 1.80 91 1012.4
20260906201316 22 358 1.6 1.6 0.00 1.80 1.80 92 1013.1
20260906200716 22 4 3.2 3.2 0.00 1.80 1.80 92 1013.1
20260906200119 21 52 3.2 3.2 0.00 1.80 1.80 92 1013.4
20260906195516 21 2 1.6 1.6 0.00 1.80 1.80 92 1013.4
20260906194917 21 2 1.6 1.6 0.05 1.80 1.80 92 1013.4
20260906194319 21 326 3.2 3.2 0.10 1.80 1.80 92 1013.4
20260906193718 21 337 1.6 3.2 0.15 1.80 1.80 92 1013.8
20260906193115 21 270 0.0 0.0 0.20 1.80 1.80 92 1013.4
20260906192521 21 350 1.6 1.6 0.23 1.80 1.80 92 1014.1
20260906191915 21 356 3.2 3.2 0.23 1.80 1.80 92 1013.8
20260906191317 21 14 4.8 4.8 0.25 1.80 1.80 92 1013.4
20260906190719 21 339 1.6 1.6 0.25 1.80 1.80 93 1013.8
20260906184919 21 327 0.0 1.6 0.28 1.75 1.75 93 1014.5
20260906184316 21 328 1.6 3.2 0.28 1.70 1.70 93 1014.5
20260906183718 21 336 0.0 0.0 0.28 1.65 1.65 93 1014.5
20260906183120 21 347 3.2 4.8 0.28 1.60 1.60 92 1014.5
20260906182516 20 317 1.6 1.6 0.30 1.57 1.57 93 1014.5
20260906181916 20 326 0.0 1.6 0.38 1.57 1.57 92 1014.5
20260906181320 20 12 6.4 6.4 0.38 1.55 1.55 93 1014.5
20260906180718 20 50 3.2 4.8 0.38 1.55 1.55 92 1014.5
20260906174917 20 32 4.8 4.8 0.43 1.47 1.47 92 1014.5
20260906174315 20 240 1.6 1.6 0.48 1.42 1.42 92 1014.5
20260906173720 20 240 1.6 1.6 0.48 1.37 1.37 92 1014.8
20260906172516 20 240 0.0 0.0 0.51 1.27 1.27 92 1014.8
20260906171319 19 233 3.2 3.2 0.56 1.17 1.17 92 1014.8
20260906170714 19 313 1.6 1.6 0.58 1.17 1.17 92 1014.8
20260906170120 19 6 0.0 0.0 0.61 1.14 1.14 92 1014.5
20260906165517 19 5 1.6 3.2 0.58 1.12 1.12 92 1014.1
20260906164917 19 35 3.2 4.8 0.53 1.04 1.04 91 1013.8
20260906164318 19 331 1.6 1.6 0.43 0.94 0.94 91 1013.8
20260906163717 19 314 1.6 1.6 0.38 0.89 0.89 91 1014.1
20260906162521 19 271 1.6 3.2 0.25 0.76 0.76 90 1014.1
20260906161916 19 250 3.2 4.8 0.15 0.66 0.66 90 1014.5
20260906161318 19 231 3.2 3.2 0.10 0.61 0.61 90 1014.5
20260906160719 20 250 3.2 3.2 0.08 0.58 0.58 89 1014.1
20260906155517 20 243 3.2 3.2 0.03 0.53 0.53 89 1013.8
20260906154920 20 242 1.6 1.6 0.00 0.51 0.51 89 1013.4
20260906154315 20 269 3.2 3.2 0.03 0.51 0.51 89 1013.4
20260906153717 20 344 0.0 0.0 0.03 0.51 0.51 89 1013.1
20260906153119 19 344 0.0 0.0 0.03 0.51 0.51 89 1012.8
20260906152517 19 358 0.0 1.6 0.03 0.51 0.51 89 1012.8
20260906151917 19 319 0.0 0.0 0.05 0.51 0.51 88 1012.4
20260906151321 18 327 1.6 1.6 0.05 0.51 0.51 88 1012.4
20260906150715 18 337 3.2 3.2 0.08 0.51 0.51 88 1012.4
20260906150117 18 359 3.2 4.8 0.08 0.51 0.51 87 1012.4
20260906145519 18 352 1.6 1.6 0.08 0.51 0.51 87 1012.4
20260906144316 17 12 3.2 4.8 0.10 0.48 0.48 87 1012.1
20260906143721 17 333 3.2 3.2 0.10 0.48 0.48 87 1012.1
20260906143116 17 2 6.4 6.4 0.15 0.48 0.48 87 1012.4
20260906142519 17 342 9.7 14.5 0.18 0.48 0.48 86 1012.4
20260906141918 17 18 11.3 14.5 0.15 0.46 0.46 86 1012.1
20260906141316 17 314 4.8 6.4 0.18 0.46 0.46 86 1012.4
20260906140718 17 344 9.7 14.5 0.18 0.43 0.43 86 1012.4
20260906140121 17 2 14.5 16.1 0.20 0.43 0.43 86 1012.1
20260906134917 17 10 6.4 11.3 0.23 0.38 0.38 86 1012.8
20260906134319 17 356 8.0 9.7 0.28 0.38 0.38 86 1012.8
20260906133716 17 5 6.4 6.4 0.28 0.38 0.38 86 1012.8
20260906133116 17 329 3.2 4.8 0.28 0.33 0.33 86 1012.4
20260906132521 18 316 9.7 11.3 0.25 0.30 0.30 85 1012.8
20260906131317 18 299 3.2 3.2 0.28 0.28 0.28 85 1013.1
20260906130719 18 43 9.7 11.3 0.25 0.25 0.25 84 1012.8
20260906130117 19 9 8.0 9.7 0.23 0.23 0.23 83 1012.4
20260906125514 19 354 4.8 4.8 0.18 0.18 0.18 81 1012.4
20260906124922 20 313 6.4 9.7 0.15 0.15 0.15 79 1013.1
20260906124316 21 212 4.8 4.8 0.10 0.10 0.10 75 1013.4
20260906123120 21 294 0.0 1.6 0.05 0.05 0.05 66 1012.8
20260906122516 22 1 3.2 3.2 0.05 0.05 0.05 62 1012.1
20260906121915 22 179 3.2 3.2 0.00 0.00 0.00 57 1011.8
20260906121320 22 237 1.6 1.6 0.00 0.00 0.00 54 1011.8
20260906120716 22 258 3.2 3.2 0.00 0.00 0.00 52 1011.4
20260906120115 22 323 0.0 0.0 0.00 0.00 0.00 51 1011.4
20260906115520 22 323 0.0 0.0 0.00 0.00 0.00 50 1011.1
20260906114916 22 323 1.6 1.6 0.00 0.00 0.00 51 1010.7
20260906113116 22 348 1.6 1.6 0.00 0.00 0.00 51 1011.1
20260906112516 21 319 3.2 3.2 0.00 0.00 0.00 52 1011.1
20260906111920 21 321 1.6 1.6 0.00 0.00 0.00 52 1011.1
20260906111318 22 321 1.6 1.6 0.00 0.00 0.00 52 1011.1
20260906110716 22 335 3.2 3.2 0.00 0.00 0.00 52 1010.7
20260906110120 22 334 0.0 0.0 0.00 0.00 0.00 51 1011.1
20260906105516 22 334 0.0 1.6 0.00 0.00 0.00 50 1011.1
20260906104918 22 334 1.6 1.6 0.00 0.00 0.00 49 1011.1
20260906103715 22 331 0.0 0.0 0.00 0.00 0.00 48 1011.1
20260906103115 22 327 3.2 3.2 0.00 0.00 0.00 47 1011.1
20260906101917 22 275 0.0 0.0 0.00 0.00 0.00 46 1011.1
20260906101317 22 344 1.6 1.6 0.00 0.00 0.00 44 1011.1
20260906100721 22 345 3.2 3.2 0.00 0.00 0.00 47 1010.7
20260906094921 22 339 0.0 0.0 0.00 0.00 0.00 47 1011.1
20260906093717 22 339 0.0 1.6 0.00 0.00 0.00 47 1011.1
20260906093121 21 339 1.6 1.6 0.00 0.00 0.00 47 1011.1
20260906092518 21 339 1.6 1.6 0.00 0.00 0.00 48 1011.1
20260906091914 21 339 1.6 1.6 0.00 0.00 0.00 49 1011.1
20260906091321 21 339 0.0 1.6 0.00 0.00 0.00 50 1010.7
20260906090717 21 339 0.0 0.0 0.00 0.00 0.00 50 1011.1
20260906090117 21 339 0.0 0.0 0.00 0.00 0.00 50 1011.1
20260906085520 21 339 0.0 0.0 0.00 0.00 0.00 50 1011.1
20260906084916 21 339 0.0 0.0 0.00 0.00 0.00 50 1011.1
20260906084317 21 339 0.0 0.0 0.00 0.00 0.00 50 1011.4
20260906083721 21 339 0.0 1.6 0.00 0.00 0.00 50 1011.4
20260906083116 21 335 0.0 1.6 0.00 0.00 0.00 50 1011.1
20260906082516 21 335 0.0 1.6 0.00 0.00 0.00 49 1011.4
20260906081316 21 335 0.0 1.6 0.00 0.00 0.00 50 1011.4
20260906080625 21 335 0.0 1.6 0.00 0.00 0.00 49 1011.4
20260906080121 21 335 1.6 1.6 0.00 0.00 0.00 49 1011.4
20260906075516 21 335 0.0 0.0 0.00 0.00 0.00 49 1011.4
20260906074320 21 335 0.0 1.6 0.00 0.00 0.00 49 1011.4
20260906073115 21 335 1.6 1.6 0.00 0.00 0.00 47 1011.4
20260906072519 21 335 0.0 0.0 0.00 0.00 0.00 47 1011.4
20260906071916 21 335 0.0 0.0 0.00 0.00 0.00 47 1011.4
20260906071318 21 335 0.0 1.6 0.00 0.00 0.00 47 1011.4
20260906064316 21 338 0.0 0.0 0.00 0.00 0.00 49 1011.4
20260906063716 21 333 1.6 1.6 0.00 0.00 0.00 50 1011.4
20260906062518 21 331 0.0 0.0 0.00 0.00 0.00 50 1011.4
20260906061916 21 331 0.0 0.0 0.00 0.00 0.00 51 1011.4
20260906061322 21 331 0.0 0.0 0.00 0.00 0.00 51 1011.8
20260906060715 21 331 1.6 1.6 0.00 0.00 0.00 51 1011.4
20260906060117 21 330 0.0 1.6 0.00 0.00 0.00 51 1011.4
20260906055519 21 329 0.0 1.6 0.00 0.00 0.00 52 1011.4
20260906054917 21 328 1.6 1.6 0.00 0.00 0.00 51 1011.4
20260906054319 22 328 0.0 1.6 0.00 0.00 0.00 51 1011.8
20260906053723 22 328 0.0 0.0 0.00 0.00 0.00 57 1011.4
20260906053115 22 328 0.0 0.0 0.00 0.00 0.00 49 1011.4
20260906052516 22 328 0.0 1.6 0.00 0.00 0.00 49 1011.4
20260906051918 22 328 0.0 1.6 0.00 0.00 0.00 49 1011.8
20260906050730 22 329 0.0 0.0 0.00 0.00 0.00 51 1011.8
20260906050119 22 329 0.0 1.6 0.00 0.00 0.00 52 1011.8
20260906045517 22 327 0.0 0.0 0.00 0.00 0.00 54 1011.8
20260906044916 22 328 0.0 0.0 0.00 0.00 0.00 59 1011.8
20260906043717 22 323 0.0 0.0 0.00 0.00 0.00 60 1011.8
20260906043116 23 316 0.0 0.0 0.00 0.00 0.00 62 1011.8
20260906042524 23 325 1.6 1.6 0.00 0.00 0.00 64 1011.8
20260906041317 23 246 0.0 0.0 0.00 0.00 0.00 64 1011.8
20260906040719 23 246 0.0 0.0 0.00 0.00 0.00 64 1011.8
20260906040119 23 246 0.0 0.0 0.00 0.00 0.00 64 1011.4
20260906034316 23 252 1.6 1.6 0.00 0.00 0.00 66 1011.4
20260906033716 23 274 0.0 1.6 0.00 0.00 0.00 66 1011.4
20260906033118 23 277 1.6 1.6 0.00 0.00 0.00 65 1011.1
20260906032518 23 259 1.6 1.6 0.00 0.00 0.00 65 1011.1
20260906031916 23 232 3.2 3.2 0.00 0.00 0.00 64 1011.1
20260906031320 23 260 1.6 3.2 0.00 0.00 0.00 64 1011.1
20260906030716 23 276 1.6 1.6 0.00 0.00 0.00 66 1011.1
20260906030117 23 269 1.6 1.6 0.00 0.00 0.00 66 1010.7
20260906025520 23 241 1.6 3.2 0.00 0.00 0.00 65 1010.7
20260906024315 23 225 4.8 4.8 0.00 0.00 0.00 59 1011.1
20260906023115 24 233 3.2 3.2 0.00 0.00 0.00 52 1010.7
20260906022517 24 281 3.2 3.2 0.00 0.00 0.00 49 1011.1
20260906021919 24 233 3.2 4.8 0.00 0.00 0.00 47 1011.1
20260906021317 25 281 4.8 4.8 0.00 0.00 0.00 45 1010.7
20260906020715 25 266 6.4 6.4 0.00 0.00 0.00 46 1010.7
20260906020120 25 269 8.0 9.7 0.00 0.00 0.00 46 1011.1
20260906015516 25 300 4.8 6.4 0.00 0.00 0.00 46 1011.1
20260906014917 25 220 6.4 9.7 0.00 0.00 0.00 44 1011.1
20260906014323 25 297 4.8 6.4 0.00 0.00 0.00 45 1011.1
20260906013717 25 273 8.0 9.7 0.00 0.00 0.00 44 1011.1
20260906013116 25 258 9.7 11.3 0.00 0.00 0.00 49 1011.1
20260906012520 25 202 8.0 9.7 0.00 0.00 0.00 50 1011.1
20260906011915 25 213 8.0 11.3 0.00 0.00 0.00 52 1011.1
20260906011317 25 254 8.0 11.3 0.00 0.00 0.00 48 1011.1
20260906010722 26 235 6.4 6.4 0.00 0.00 0.00 47 1011.1
20260906010118 25 268 6.4 9.7 0.00 0.00 0.00 47 1011.1
20260906005516 26 239 9.7 12.9 0.00 0.00 0.00 47 1011.1
20260906004919 26 273 9.7 11.3 0.00 0.00 0.00 48 1011.1
20260906004318 26 277 6.4 6.4 0.00 0.00 0.00 47 1011.1
20260906003717 26 272 6.4 9.7 0.00 0.00 0.00 47 1011.1
20260906003118 26 278 8.0 9.7 0.00 0.00 0.00 49 1010.7
20260906002517 26 249 9.7 12.9 0.00 0.00 0.00 48 1011.1
20260906001916 26 231 8.0 11.3 0.00 0.00 0.00 51 1011.1
20260906000716 26 248 12.9 14.5 0.00 0.00 0.00 52 1011.1
20260906000119 26 239 6.4 11.3 0.00 0.00 0.00 50 1011.1
20260905234918 26 249 9.7 14.5 0.00 0.00 0.00 50 1010.7
20260905234317 26 253 6.4 6.4 0.00 0.00 0.00 53 1010.7
20260905233117 27 206 11.3 12.9 0.00 0.00 0.00 51 1010.7
20260905232517 27 260 9.7 12.9 0.00 0.00 0.00 52 1011.1
20260905231919 27 262 14.5 16.1 0.00 0.00 0.00 45 1010.7